Okmulgee, OK

2:46 PM CDT on September 19, 2017 (GMT -0500)
Okmulgee Regional

Weather History for KOKM - January, 2014

Change the Weather History Date:

Sunday, January 12, 2014

  Actual Average (KMKO) Record (KMKO)
Temperature  
Mean Temperature 50 °F -  
Max Temperature 69 °F 46 °F 73 °F (2000)
Min Temperature 31 °F 27 °F 10 °F (1997)
Degree Days  
Heating Degree Days 15    
Moisture  
Dew Point 32 °F    
Average Humidity 47    
Maximum Humidity 82    
Minimum Humidity 23    
Precipitation  
Precipitation 0.00 in - - ()
Sea Level Pressure  
Sea Level Pressure 29.77 in    
Wind  
Wind Speed 11 mph (South)    
Max Wind Speed 30 mph    
Max Gust Speed 46 mph    
Visibility 10 miles    
Events      
Averages and records for this station are not official NWS values.
T = Trace of Precipitation, MM = Missing Value Source: NWS Daily Summary

Daily Weather History Graph

Daily Weather History Graph

Search for Another Location

Airport or City:

Trip Planner

Search our weather history database for the weather conditions in past years. The results will help you decide how hot, cold, wet, or windy it might be!

Date:

Astronomy

Jan. 12, 2014 Rise Set
Actual Time 7:33 AM CST 5:31 PM CST
Civil Twilight 7:05 AM CST 5:58 PM CST
Nautical Twilight 6:34 AM CST 6:30 PM CST
Astronomical Twilight 6:03 AM CST 7:01 PM CST
Moon 2:59 PM CST (1/12) 4:34 AM CST (1/12)
Length of Visible Light 10h 53m
Length of Day
9h 57m
Waxing Gibbous, 90% of the Moon is Illuminated
Jan 12
Waxing Gibbous
Jan 15
Full
Jan 23
Last Quarter
Jan 30
New
Feb 6
First Quarter

Hourly Weather History & Observations

Time (CST) Temp. Windchill Dew Point Humidity Pressure Visibility Wind Dir Wind Speed Gust Speed Precip Events Conditions
12:15 AM 31.8 °F - 26.8 °F 82% 29.98 in 10.0 mi Calm Calm - N/A   Clear
12:35 AM 36.1 °F - 27.3 °F 70% 29.96 in 10.0 mi Calm Calm - N/A   Clear
12:55 AM 35.8 °F - 27.1 °F 71% 29.95 in 10.0 mi Calm Calm - N/A   Clear
1:15 AM 36.1 °F - 27.0 °F 69% 29.94 in 10.0 mi Calm Calm - N/A   Clear
1:35 AM 36.3 °F 33.7 °F 26.6 °F 68% 29.94 in 10.0 mi SSE 3.5 mph - N/A   Clear
1:55 AM 35.4 °F - 26.4 °F 70% 29.94 in 10.0 mi Calm Calm - N/A   Clear
2:15 AM 34.3 °F - 26.2 °F 72% 29.94 in 10.0 mi Calm Calm - N/A   Clear
2:35 AM 33.4 °F - 26.2 °F 75% 29.94 in 10.0 mi Calm Calm - N/A   Clear
2:55 AM 34.5 °F 30.4 °F 26.2 °F 72% 29.93 in 10.0 mi SE 4.6 mph - N/A   Clear
3:15 AM 34.7 °F 31.8 °F 26.2 °F 71% 29.92 in 10.0 mi SE 3.5 mph - N/A   Clear
3:35 AM 36.0 °F 32.1 °F 26.1 °F 67% 29.92 in 10.0 mi SSE 4.6 mph - N/A   Clear
3:55 AM 37.0 °F 33.3 °F 25.7 °F 64% 29.91 in 10.0 mi SSE 4.6 mph - N/A   Clear
4:15 AM 35.8 °F 33.0 °F 25.5 °F 66% 29.91 in 10.0 mi SSE 3.5 mph - N/A   Clear
4:35 AM 35.2 °F 31.2 °F 25.3 °F 67% 29.91 in 10.0 mi SE 4.6 mph - N/A   Clear
4:55 AM 34.9 °F 30.8 °F 25.9 °F 70% 29.90 in 10.0 mi SE 4.6 mph - N/A   Clear
5:15 AM 37.4 °F 34.9 °F 25.9 °F 63% 29.89 in 10.0 mi SE 3.5 mph - N/A   Clear
5:35 AM 40.1 °F 33.6 °F 28.0 °F 62% 29.89 in 10.0 mi South 10.4 mph 20.7 mph N/A   Clear
5:55 AM 41.5 °F 35.0 °F 28.0 °F 59% 29.88 in 10.0 mi South 11.5 mph 19.6 mph N/A   Clear
6:15 AM 41.4 °F 34.0 °F 27.3 °F 57% 29.88 in 10.0 mi South 13.8 mph 20.7 mph N/A   Clear
6:35 AM 41.0 °F 33.9 °F 27.3 °F 58% 29.88 in 10.0 mi South 12.7 mph 21.9 mph N/A   Clear
6:55 AM 40.3 °F 33.4 °F 26.8 °F 59% 29.88 in 10.0 mi South 11.5 mph 17.3 mph N/A   Clear
7:15 AM 41.5 °F 35.9 °F 26.6 °F 55% 29.87 in 10.0 mi South 9.2 mph 18.4 mph N/A   Clear
7:35 AM 40.3 °F 34.4 °F 27.1 °F 59% 29.87 in 10.0 mi South 9.2 mph - N/A   Clear
7:55 AM 42.6 °F 36.3 °F 28.0 °F 56% 29.86 in 10.0 mi South 11.5 mph - N/A   Clear
8:15 AM 44.8 °F 38.7 °F 28.6 °F 53% 29.86 in 10.0 mi South 12.7 mph - N/A   Clear
8:35 AM 48.7 °F - 29.3 °F 47% 29.85 in 10.0 mi South 15.0 mph 25.3 mph N/A   Clear
8:55 AM 50.4 °F - 30.0 °F 46% 29.85 in 10.0 mi South 13.8 mph 24.2 mph N/A   Clear
9:15 AM 52.0 °F - 30.0 °F 43% 29.85 in 10.0 mi South 11.5 mph 26.5 mph N/A   Clear
9:35 AM 54.9 °F - 30.6 °F 40% 29.85 in 10.0 mi South 17.3 mph 29.9 mph N/A   Clear
9:55 AM 57.4 °F - 30.9 °F 37% 29.84 in 10.0 mi South 17.3 mph 29.9 mph N/A   Clear
10:15 AM 60.3 °F - 30.4 °F 32% 29.83 in 10.0 mi SSW 20.7 mph 33.4 mph N/A   Clear
10:35 AM 62.2 °F - 28.9 °F 28% 29.83 in 10.0 mi SSW 24.2 mph 42.6 mph N/A   Clear
10:55 AM 62.8 °F - 28.2 °F 27% 29.82 in 10.0 mi SSW 27.6 mph 44.9 mph N/A   Clear
11:15 AM 63.5 °F - 28.9 °F 27% 29.79 in 10.0 mi SSW 25.3 mph 36.8 mph N/A   Clear
11:35 AM 63.9 °F - 29.1 °F 27% 29.78 in 10.0 mi SSW 28.8 mph 44.9 mph N/A   Clear
11:55 AM 63.9 °F - 29.7 °F 28% 29.76 in 10.0 mi SSW 29.9 mph 41.4 mph N/A   Clear
12:15 PM 64.8 °F - 30.2 °F 27% 29.74 in 10.0 mi SSW 27.6 mph 41.4 mph N/A   Clear
12:35 PM 66.2 °F - 30.4 °F 26% 29.72 in 10.0 mi SSW 27.6 mph 38.0 mph N/A   Clear
12:55 PM 67.6 °F - 30.0 °F 25% 29.71 in 10.0 mi SSW 26.5 mph 38.0 mph N/A   Clear
1:15 PM 68.4 °F - 29.8 °F 24% 29.70 in 10.0 mi SSW 18.4 mph 35.7 mph N/A   Clear
1:35 PM 69.3 °F - 29.8 °F 23% 29.68 in 10.0 mi SSW 27.6 mph 46.0 mph N/A   Clear
1:55 PM 69.1 °F - 30.2 °F 24% 29.67 in 10.0 mi SSW 27.6 mph 46.0 mph N/A   Clear
2:15 PM 69.6 °F - 30.2 °F 23% 29.67 in 10.0 mi SSW 21.9 mph 38.0 mph N/A   Clear
2:35 PM 69.4 °F - 30.4 °F 23% 29.67 in 10.0 mi SSW 25.3 mph 35.7 mph N/A   Clear
2:55 PM 69.8 °F - 30.2 °F 23% 29.65 in 10.0 mi SSW 21.9 mph 38.0 mph N/A   Clear
3:15 PM 69.8 °F - 30.2 °F 23% 29.65 in 10.0 mi SSW 21.9 mph 34.5 mph N/A   Clear
3:35 PM 69.6 °F - 30.6 °F 23% 29.64 in 10.0 mi SSW 24.2 mph 36.8 mph N/A   Clear
3:55 PM 69.3 °F - 30.9 °F 24% 29.64 in 10.0 mi SSW 17.3 mph 39.1 mph N/A   Clear
4:15 PM 68.9 °F - 31.3 °F 25% 29.64 in 10.0 mi SSW 21.9 mph 40.3 mph N/A   Clear
4:35 PM 68.4 °F - 32.0 °F 26% 29.64 in 10.0 mi SSW 26.5 mph 39.1 mph N/A   Clear
4:55 PM 68.0 °F - 32.2 °F 26% 29.65 in 10.0 mi SSW 21.9 mph 28.8 mph N/A   Clear
5:15 PM 67.3 °F - 32.5 °F 28% 29.64 in 10.0 mi SSW 19.6 mph 27.6 mph N/A   Clear
5:35 PM 65.7 °F - 33.3 °F 30% 29.64 in 10.0 mi South 16.1 mph 25.3 mph N/A   Clear
5:55 PM 64.4 °F - 33.8 °F 32% 29.65 in 10.0 mi South 17.3 mph 25.3 mph N/A   Clear
6:15 PM 63.1 °F - 34.7 °F 35% 29.65 in 10.0 mi South 19.6 mph 26.5 mph N/A   Clear
6:35 PM 63.1 °F - 35.1 °F 35% 29.66 in 10.0 mi South 17.3 mph 24.2 mph N/A   Clear
6:55 PM 61.9 °F - 35.6 °F 38% 29.65 in 10.0 mi South 18.4 mph 26.5 mph N/A   Clear
7:15 PM 61.9 °F - 36.7 °F 39% 29.64 in 10.0 mi South 20.7 mph 31.1 mph N/A   Clear
7:35 PM 61.7 °F - 37.9 °F 41% 29.65 in 10.0 mi South 20.7 mph 33.4 mph N/A   Clear
7:55 PM 61.0 °F - 38.3 °F 43% 29.64 in 10.0 mi South 20.7 mph 34.5 mph N/A   Clear
8:15 PM 60.8 °F - 38.7 °F 44% 29.64 in 10.0 mi South 18.4 mph 35.7 mph N/A   Clear
8:35 PM 60.4 °F - 39.4 °F 46% 29.64 in 10.0 mi South 19.6 mph 36.8 mph N/A   Clear
8:55 PM 60.1 °F - 40.3 °F 48% 29.64 in 10.0 mi South 26.5 mph 34.5 mph N/A   Clear
9:15 PM 60.1 °F - 41.5 °F 50% 29.65 in 10.0 mi SSW 25.3 mph 38.0 mph N/A   Clear
9:35 PM 59.9 °F - 43.0 °F 54% 29.64 in 10.0 mi South 23.0 mph 36.8 mph N/A   Clear
9:55 PM 59.4 °F - 43.9 °F 57% 29.64 in 10.0 mi South 17.3 mph 38.0 mph N/A   Clear
10:15 PM 59.9 °F - 44.8 °F 57% 29.64 in 10.0 mi SSW 20.7 mph 34.5 mph N/A   Clear
10:35 PM 59.5 °F - 45.0 °F 59% 29.64 in 10.0 mi SSW 18.4 mph 34.5 mph N/A   Clear
10:55 PM 59.0 °F - 45.5 °F 61% 29.65 in 10.0 mi SSW 16.1 mph 29.9 mph N/A   Clear
11:15 PM 58.8 °F - 45.9 °F 62% 29.67 in 10.0 mi SSW 17.3 mph 27.6 mph N/A   Clear
11:35 PM 58.1 °F - 46.4 °F 65% 29.68 in 10.0 mi SW 13.8 mph 21.9 mph N/A   Clear
11:55 PM 57.9 °F - 47.1 °F 67% 29.69 in 10.0 mi SW 13.8 mph 20.7 mph N/A   Clear